[[{"header":{"parameterUnit":"m.s-1","parameterCategory":1,"la1":30.2991,"la2":30.254,"lo1":-89.0895,"lo2":-89.0444,"dy":0.0017,"dx":0.0017,"nx":28,"ny":28,"refTime":"2024-08-26T09:00:00:Z","depth":0,"parameterNumber":2,"parameterNumberName":"U-component_of_WINDS"},"data":[0,0,0,0,0,0,0,0,0,0,0,0,0,0,0,0,0,0,0,0,0,0,0,0,0,0,0,0,0,0,0,0,0,0,0,0,0,0,0,0,0,0,0,0,0,0,0,0,0,0,0,0,0,0,0,0,0,0,-2.4283,-2.4282,0,-2.4216,-2.4215,-2.4214,-2.4127,-2.4125,-2.4124,-2.4122,-2.4056,-2.4056,-2.4055,0,0,0,0,0,0,0,0,0,0,0,0,0,-2.4339,-2.4339,-2.4283,-2.4282,-2.4281,-2.4216,-2.4215,-2.4214,-2.4127,-2.4125,-2.4123,-2.4122,-2.4056,-2.4056,-2.4055,0,0,0,0,0,0,0,0,0,0,0,0,0,-2.4298,-2.4338,-2.4283,-2.423,-2.4224,-2.4216,-2.4215,-2.4214,-2.4127,-2.4125,-2.4123,-2.4121,-2.4056,-2.4056,-2.4055,-2.4095,0,0,-2.4053,-2.4053,0,0,0,0,0,0,0,0,-2.43,-2.4296,-2.4238,-2.4233,-2.4227,-2.4177,-2.4211,-2.4174,-2.4128,-2.4164,-2.4122,-2.412,-2.4098,-2.4094,-2.4086,-2.4092,-2.4089,-2.4053,-2.4053,-2.4053,-2.4052,0,0,0,0,0,0,0,-2.4303,-2.4298,-2.4256,-2.4238,-2.4231,-2.4211,-2.4202,-2.4203,-2.4144,-2.4161,-2.4154,-2.4147,-2.4095,-2.4087,-2.4084,-2.4088,-2.4053,-2.4053,-2.4052,-2.4052,-2.4125,-2.4128,0,0,0,0,0,0,-2.4314,-2.4301,-2.4259,-2.4254,-2.4259,-2.4211,-2.4202,-2.4196,-2.4144,-2.4134,-2.4149,-2.4144,-2.4089,-2.4085,-2.4082,-2.4126,-2.4053,-2.4052,-2.4052,-2.4123,-2.4126,-2.4128,0,0,0,0,0,0,-2.4315,-2.4311,-2.4261,-2.4276,-2.4268,-2.4213,-2.4206,-2.4195,-2.4188,-2.4135,-2.4125,-2.4152,-2.4087,-2.4082,-2.4093,-2.4123,-2.4052,-2.4051,-2.412,-2.4124,-2.4127,-2.4216,0,0,0,0,0,0,-2.4317,-2.4312,-2.4325,-2.4277,-2.4268,-2.4273,-2.4208,-2.4196,-2.4186,-2.4178,-2.4135,-2.4126,-2.4085,-2.4094,-2.4092,-2.4121,-2.4051,-2.4117,-2.4122,-2.4126,-2.421,-2.4222,-2.4232,0,0,0,0,0,-2.432,-2.4352,-2.4326,-2.4322,-2.4283,-2.4274,-2.4269,-2.4221,-2.4189,-2.4203,-2.417,-2.4127,-2.412,-2.4096,-2.4093,-2.4122,-2.4115,-2.4121,-2.4126,-2.4205,-2.4219,-2.4232,0,0,0,0,0,0,-2.4405,-2.4345,-2.4315,-2.4333,-2.431,-2.426,-2.4275,-2.4238,-2.4223,-2.4216,-2.4158,-2.4149,-2.4167,-2.4145,-2.412,-2.4159,-2.4111,-2.4116,-2.4173,-2.4186,-2.4197,-2.4202,-2.405,0,0,0,0,0,-2.4427,-2.4424,-2.4371,-2.4392,-2.4382,-2.4331,-2.4325,-2.4291,-2.4264,-2.4254,-2.4221,-2.4198,-2.4191,-2.4187,-2.4177,-2.4206,-2.4197,-2.4225,-2.4236,-2.4245,-2.4251,-2.4267,-2.428,-2.4146,-2.4146,-2.4146,0,0,-2.447,-2.4437,-2.4438,-2.4409,-2.4386,-2.4386,-2.4323,-2.4325,-2.4325,-2.4254,-2.4262,-2.4238,-2.4208,-2.4229,-2.4237,-2.4211,-2.4286,-2.4252,-2.426,-2.426,-2.4274,-2.4287,-2.4298,-2.4149,-2.4149,-2.4148,0,0,-2.4549,-2.4523,-2.4539,-2.4518,-2.4485,-2.4451,-2.4456,-2.4412,-2.4393,-2.44,-2.4348,-2.4348,-2.4335,-2.4317,-2.4306,-2.4382,-2.4344,-2.4381,-2.4439,-2.4456,-2.4467,-2.4476,-2.4505,-2.4516,-2.4386,-2.4386,-2.4386,0,-2.4608,-2.4604,-2.4552,-2.4558,-2.4548,-2.4484,-2.4501,-2.4484,-2.445,-2.4445,-2.4417,-2.4402,-2.4377,-2.4394,-2.4413,-2.4406,-2.4411,-2.4386,-2.4469,-2.4478,-2.4485,-2.4513,-2.4524,-2.4391,-2.4391,-2.439,-2.439,0,-2.4679,-2.4678,-2.4695,-2.4664,-2.4655,-2.4667,-2.4618,-2.4616,-2.4583,-2.4553,-2.4563,-2.4531,-2.4515,-2.4517,-2.4484,-2.453,-2.4516,-2.4479,-2.4431,-2.4504,-2.4529,-2.4539,-2.4398,-2.4396,-2.4395,-2.4394,0,0,-2.4809,-2.4751,-2.4758,-2.4745,-2.4705,-2.4703,-2.4713,-2.4697,-2.4698,-2.4677,-2.4686,-2.4678,-2.4645,-2.4633,-2.4598,-2.4613,-2.4678,-2.4575,-2.4573,-2.4597,-2.473,-2.4759,-2.4771,-2.4652,-2.4654,-2.4655,-2.4733,0,-2.4882,-2.4894,-2.4849,-2.4874,-2.4874,-2.4815,-2.4824,-2.4802,-2.4774,-2.4771,-2.4742,-2.4738,-2.4693,-2.4686,-2.4698,-2.4668,-2.4704,-2.4661,-2.4661,-2.4662,-2.4671,-2.4784,-2.4813,-2.4888,-2.4742,-2.4744,-2.4745,0,-2.4968,-2.4953,-2.4978,-2.494,-2.4938,-2.4946,-2.493,-2.4927,-2.4902,-2.4881,-2.4869,-2.4829,-2.4838,-2.4791,-2.4804,-2.4776,-2.4774,-2.4759,-2.4761,-2.476,-2.4709,-2.4788,-2.4911,-2.4923,-2.4759,-2.4758,-2.4757,0,-2.5063,-2.5049,-2.5062,-2.5052,-2.5007,-2.5015,-2.4997,-2.497,-2.4964,-2.495,-2.4946,-2.4934,-2.4927,-2.4919,-2.4878,-2.4847,-2.4897,-2.4846,-2.4882,-2.4883,-2.4895,-2.4895,-2.5022,-2.4892,-2.4892,-2.4891,-2.4891,0,-2.515,-2.5168,-2.5105,-2.5114,-2.5133,-2.5082,-2.5103,-2.5079,-2.5056,-2.506,-2.5008,-2.5014,-2.4958,-2.4958,-2.4926,-2.4944,-2.494,-2.4926,-2.4917,-2.4931,-2.4933,-2.4929,-2.4924,-2.4894,-2.4894,-2.4893,-2.4893,0,-2.5259,-2.5217,-2.5229,-2.5186,-2.5176,-2.5193,-2.5156,-2.5164,-2.5134,-2.5141,-2.5139,-2.5093,-2.5091,-2.5049,-2.5037,-2.5016,-2.5047,-2.5028,-2.5056,-2.505,-2.5089,-2.5087,-2.5218,-2.5234,-2.5093,-2.5095,-2.5096,0,-2.5318,-2.5331,-2.529,-2.5289,-2.5273,-2.5272,-2.5267,-2.5218,-2.5214,-2.5188,-2.52,-2.5193,-2.5185,-2.5185,-2.5151,-2.5143,-2.5125,-2.5171,-2.5123,-2.5138,-2.5128,-2.5128,-2.513,-2.5182,-2.5184,-2.5185,-2.5186,0,-2.5427,-2.5406,-2.54,-2.5387,-2.5382,-2.537,-2.5354,-2.5357,-2.5304,-2.5303,-2.53,-2.5294,-2.5283,-2.5278,-2.5265,-2.5247,-2.5209,-2.5202,-2.521,-2.5225,-2.5241,-2.5235,-2.5085,-2.5199,-2.5198,-2.5197,-2.5196,-2.5196,-2.5514,-2.5523,-2.5497,-2.5492,-2.5476,-2.5463,-2.5469,-2.5441,-2.5437,-2.5424,-2.5396,-2.5399,-2.5376,-2.5353,-2.534,-2.5342,-2.5319,-2.533,-2.5333,-2.5337,-2.5346,-2.524,-2.5339,-2.5339,-2.5338,-2.5338,-2.5338,0,-2.5622,-2.5602,-2.5599,-2.5579,-2.5577,-2.554,-2.5522,-2.5523,-2.5525,-2.5507,-2.5501,-2.5499,-2.5495,-2.5462,-2.5455,-2.5463,-2.5446,-2.5463,-2.5463,-2.546,-2.5366,-2.5361,-2.5478,-2.5478,-2.5478,-2.5478,-2.5478,-2.5478,-2.5678,-2.5693,-2.567,-2.5678,-2.5658,-2.566,-2.5653,-2.5643,-2.5628,-2.5628,-2.5625,-2.5603,-2.558,-2.5571,-2.5566,-2.5557,-2.5557,-2.5581,-2.5566,-2.548,-2.5466,-2.5453,-2.5448,-2.5581,-2.5581,-2.566,-2.5661,-2.5661]},{"header":{"parameterUnit":"m.s-1","parameterCategory":1,"la1":30.2991,"la2":30.254,"lo1":-89.0895,"lo2":-89.0444,"dy":0.0017,"dx":0.0017,"nx":28,"ny":28,"refTime":"2024-08-26T09:00:00:Z","depth":0,"parameterNumber":3,"parameterNumberName":"V-component_of_WINDS"},"data":[0,0,0,0,0,0,0,0,0,0,0,0,0,0,0,0,0,0,0,0,0,0,0,0,0,0,0,0,0,0,0,0,0,0,0,0,0,0,0,0,0,0,0,0,0,0,0,0,0,0,0,0,0,0,0,0,0,0,0.6882,0.6883,0,0.6924,0.6925,0.6925,0.6934,0.6934,0.6933,0.6933,0.6974,0.6975,0.6977,0,0,0,0,0,0,0,0,0,0,0,0,0,0.6805,0.6806,0.6882,0.6883,0.6883,0.6924,0.6925,0.6926,0.6934,0.6934,0.6933,0.6933,0.6974,0.6975,0.6977,0,0,0,0,0,0,0,0,0,0,0,0,0,0.6842,0.6807,0.6882,0.6892,0.6894,0.6924,0.6925,0.6926,0.6934,0.6934,0.6933,0.6933,0.6973,0.6975,0.6977,0.6999,0,0,0.6983,0.6984,0,0,0,0,0,0,0,0,0.684,0.6845,0.689,0.6892,0.6893,0.6924,0.6913,0.695,0.6934,0.6919,0.6933,0.6933,0.6957,0.6961,0.697,0.7001,0.7003,0.6984,0.6985,0.6986,0.6986,0,0,0,0,0,0,0,0.6837,0.6843,0.6899,0.6891,0.6893,0.6894,0.6899,0.692,0.694,0.692,0.6921,0.6926,0.6958,0.6968,0.6971,0.7004,0.6984,0.6985,0.6987,0.6988,0.7053,0.7054,0,0,0,0,0,0,0.6833,0.6841,0.6897,0.69,0.6865,0.6896,0.6901,0.6914,0.694,0.6943,0.6926,0.6926,0.6964,0.6968,0.6972,0.6998,0.6986,0.6988,0.6989,0.7053,0.7053,0.7054,0,0,0,0,0,0,0.6832,0.6838,0.6896,0.6871,0.6878,0.6897,0.6912,0.6915,0.6925,0.6945,0.6948,0.6932,0.6964,0.6969,0.6992,0.7,0.6989,0.6991,0.7052,0.7053,0.7053,0.7052,0,0,0,0,0,0,0.6829,0.6838,0.6847,0.6871,0.6879,0.6916,0.6913,0.6917,0.6929,0.6929,0.6951,0.6955,0.6964,0.6989,0.6994,0.7003,0.6992,0.7051,0.7052,0.7053,0.7051,0.7053,0.7054,0,0,0,0,0,0.6827,0.6845,0.6848,0.6855,0.6892,0.6917,0.6921,0.6933,0.6929,0.6938,0.6951,0.6954,0.6998,0.6991,0.6997,0.7006,0.7051,0.7052,0.7053,0.7051,0.7052,0.7054,0,0,0,0,0,0,0.6822,0.6849,0.6852,0.6879,0.6895,0.6918,0.693,0.6934,0.6952,0.6951,0.6964,0.6968,0.699,0.7001,0.6992,0.7028,0.7024,0.7027,0.7021,0.7022,0.7023,0.702,0.6994,0,0,0,0,0,0.6824,0.6843,0.6865,0.6886,0.6895,0.6911,0.6922,0.6929,0.6947,0.6953,0.6968,0.6984,0.7001,0.7012,0.7029,0.7053,0.7057,0.7062,0.7063,0.7064,0.7065,0.7077,0.7079,0.7057,0.7057,0.7057,0,0,0.6829,0.6846,0.6857,0.6886,0.69,0.6917,0.6917,0.6936,0.6949,0.6956,0.6979,0.6989,0.7008,0.703,0.7041,0.704,0.7072,0.7065,0.7066,0.7067,0.7078,0.708,0.7082,0.7058,0.7058,0.7058,0,0,0.6846,0.6861,0.688,0.6894,0.6914,0.6925,0.6929,0.6951,0.6958,0.6981,0.6986,0.7001,0.7031,0.7044,0.7054,0.7074,0.7076,0.7079,0.7084,0.7095,0.7097,0.7098,0.7104,0.7106,0.708,0.708,0.708,0,0.6849,0.6877,0.6889,0.6908,0.6919,0.6927,0.6945,0.6957,0.6982,0.699,0.6988,0.7025,0.7038,0.7063,0.7067,0.7076,0.708,0.7076,0.7096,0.7097,0.7099,0.7104,0.7106,0.7081,0.7081,0.7081,0.7081,0,0.6878,0.6897,0.691,0.6934,0.6947,0.6965,0.6979,0.6991,0.6996,0.7006,0.7028,0.7044,0.7063,0.707,0.7076,0.7095,0.7093,0.7093,0.709,0.7101,0.7106,0.7108,0.7081,0.7081,0.7081,0.7081,0,0,0.6895,0.6924,0.6928,0.6938,0.6961,0.6975,0.6993,0.7013,0.7022,0.7038,0.7052,0.7077,0.7076,0.7088,0.7095,0.7104,0.7117,0.7103,0.7104,0.7104,0.7137,0.7136,0.7139,0.7119,0.7119,0.712,0.7135,0,0.6913,0.6946,0.6957,0.6983,0.7,0.7006,0.7022,0.7036,0.7046,0.706,0.707,0.7087,0.7086,0.7093,0.7103,0.7113,0.7123,0.7112,0.7131,0.7131,0.7125,0.7142,0.7141,0.7155,0.7137,0.7138,0.7138,0,0.694,0.6957,0.6985,0.7004,0.7011,0.7025,0.7043,0.7057,0.7073,0.7079,0.7091,0.7097,0.7114,0.7109,0.7132,0.7124,0.7132,0.7138,0.7139,0.714,0.7135,0.7143,0.716,0.7162,0.7142,0.7141,0.7141,0,0.6947,0.6977,0.6997,0.7006,0.7029,0.7038,0.7047,0.7063,0.7073,0.7089,0.7095,0.7112,0.7121,0.7133,0.7142,0.7139,0.7164,0.716,0.7168,0.7167,0.7173,0.7172,0.719,0.7179,0.7179,0.7179,0.7179,0,0.6967,0.6983,0.7,0.7013,0.7031,0.7042,0.706,0.707,0.7083,0.7096,0.7103,0.7115,0.7127,0.7141,0.7148,0.7164,0.7169,0.7173,0.7175,0.7172,0.7171,0.7177,0.7176,0.7179,0.7179,0.7179,0.7179,0,0.6977,0.699,0.7012,0.7032,0.7037,0.7049,0.7065,0.7077,0.7086,0.7103,0.7107,0.7121,0.7137,0.7148,0.7168,0.7173,0.719,0.7192,0.7185,0.7186,0.7192,0.7191,0.7215,0.7218,0.7205,0.7205,0.7205,0,0.6989,0.7001,0.7022,0.7032,0.7041,0.7057,0.7068,0.7079,0.7089,0.7107,0.7116,0.7132,0.7146,0.7171,0.7182,0.7197,0.7199,0.7206,0.7201,0.7198,0.7198,0.7197,0.7197,0.7207,0.7207,0.7207,0.7207,0,0.7006,0.7011,0.7027,0.7044,0.7056,0.707,0.7084,0.7091,0.7105,0.7116,0.7132,0.7143,0.7163,0.7179,0.7195,0.7203,0.7207,0.7208,0.7211,0.7208,0.7203,0.7204,0.7186,0.7208,0.7207,0.7207,0.7207,0.7207,0.7017,0.7028,0.7044,0.706,0.7072,0.7084,0.7096,0.7106,0.712,0.7138,0.7143,0.716,0.7174,0.7196,0.7204,0.7217,0.7216,0.722,0.722,0.7221,0.722,0.7201,0.722,0.722,0.722,0.722,0.722,0,0.7034,0.7044,0.7059,0.7078,0.7091,0.7094,0.7109,0.7118,0.7133,0.7146,0.7159,0.7177,0.7192,0.7204,0.7219,0.7227,0.7228,0.723,0.7229,0.7231,0.7221,0.7217,0.7228,0.7228,0.7228,0.7228,0.7228,0.7228,0.7044,0.7063,0.7069,0.7093,0.7103,0.712,0.7128,0.7139,0.7149,0.7169,0.7182,0.719,0.7202,0.7218,0.7231,0.7234,0.7238,0.724,0.7243,0.7233,0.7232,0.7231,0.7227,0.7241,0.7241,0.7252,0.7252,0.7252]}]]